Regional Weather Roundup
Issued by NWS

Home | Current Version | Previous Version | Text Only | Print | Product List | Glossary On
Versions: 1 2 3 4 5 6 7 8 9 10 11 12 13 14 15 16 17 18 19 20 21 22 23 24 25 26 27 28 29 30 31 32 33 34 35 36 37 38 39 40 41 42 43 44 45 46 47 48 49 50
000
ASUS43 KLSX 182207
RWRMO

WEATHER SUMMARY FOR MISSOURI
NATIONAL WEATHER SERVICE SPRINGFIELD MO
500 PM CDT THU SEP 18 2014

NOTE: "FAIR" INDICATES FEW OR NO CLOUDS BELOW 12,000 FEET WITH NO
       SIGNIFICANT WEATHER AND/OR OBSTRUCTIONS TO VISIBILITY.
       CURRENT SKY AND/OR WEATHER CONDITIONS ARE NOT AVAILABLE FOR
       CHILLICOTHE AND FARMINGTON.

MOZ001>031-035>038-043-044-053-054-182300-
...NORTHERN AND WESTERN MISSOURI...

CITY           SKY/WX    TMP DP  RH WIND       PRES   REMARKS
KANSAS CTY INT CLOUDY    66  61  84 E9        30.01S
KANSAS C DTWN  CLOUDY    67  61  81 E9        30.00S
LEE`S SUMMIT   CLOUDY    66  62  87 E6        30.01S
ST JOSEPH      CLOUDY    66  60  81 E8        30.00F
CHILLICOTHE      N/A     72  60  66 NE7       30.02F
KIRKSVILLE     CLOUDY    69  57  65 E10       30.04F

$$
MOZ066>068-077>081-088>096-101>105-182300-
...SOUTHWEST MISSOURI...

CITY           SKY/WX    TMP DP  RH WIND       PRES   REMARKS
SPRINGFIELD    PTSUNNY   72  63  73 SE10      29.98F
JOPLIN         MOSUNNY   76  64  66 SE13      29.95S

$$
MOZ032>034-039>042-045>050-055>058-069>072-182300-
...CENTRAL MISSOURI...

CITY           SKY/WX    TMP DP  RH WIND       PRES   REMARKS
COLUMBIA       MOSUNNY   71  59  65 E8        30.01S
JEFFERSON CITY PTSUNNY   75  58  55 E8        29.99F
ROLLA          CLOUDY    71  59  65 E7        29.99F
SEDALIA        CLOUDY    72  62  71 E9        30.01S
WHITEMAN AFB   CLOUDY    69  63  80 E5        30.00S
OSAGE BEACH    CLOUDY    70  61  73 E6        30.01S

$$
MOZ051-052-059>065-182300-
...EAST CENTRAL MISSOURI...

CITY           SKY/WX    TMP DP  RH WIND       PRES   REMARKS
ST LOUIS INTL  MOSUNNY   75  53  46 E13       30.02S
SPIRIT OF STL  MOSUNNY   73  55  53 E7        30.00F
ST CHARLES     SUNNY     74  52  46 E10       30.01S

$$
MOZ072>076-082>087-097>100-106>115-182300-
...SOUTH CENTRAL AND SOUTHEAST MISSOURI...

CITY           SKY/WX    TMP DP  RH WIND       PRES   REMARKS
CAPE GIRARDEAU PTSUNNY   75  59  57 E8        29.98F
FARMINGTON     CLOUDY    72  59  64 E6        30.03S
POPLAR BLUFF   MOSUNNY   75  57  53 E6        29.96S
WEST PLAINS    CLOUDY    67  60  78 E5        30.02F

$$


USA.gov is the U.S. government's official web portal to all federal, state and local government web resources and services.